Wind_Speed
53 53 52 51 50 49 49 47 47 48 47 46 45 46 45 43 43 43 42 41 39 38 37 33 31 32 33 32 32 30 29 27 26 25 24 23 21 20 18 18 18 18 19
56 56 57 56 54 53 51 51 51 50 52 51 50 49 48 46 45 44 43 42 41 40 39 37 34 34 34 35 35 34 33 32 31 30 29 28 27 26 24 23 22 22 22
59 58 57 57 57 56 55 54 54 53 53 54 53 53 52 51 49 48 47 45 44 43 43 41 39 37 37 37 37 38 37 36 35 34 34 33 32 31 29 28 26 25 24
62 62 60 59 58 57 57 56 56 56 55 55 55 54 54 53 53 52 51 50 49 48 47 45 44 42 41 40 39 39 39 39 38 38 37 36 35 33 32 30 29 28 27
64 64 64 65 65 63 61 59 57 57 57 57 58 57 56 54 54 54 53 52 52 51 50 48 47 46 44 44 43 43 43 42 41 41 40 39 37 36 35 34 33 32 31
66 66 65 65 66 66 65 65 62 60 59 58 60 60 60 59 58 56 55 54 53 52 50 49 47 45 43 42 41 41 41 41 41 40 39 37 36 35 34 34 33 34 34
75 75 73 72 71 70 68 67 67 66 63 61 62 63 64 63 62 61 59 58 56 54 53 52 50 48 47 45 44 43 41 41 41 41 40 40 38 38 38 38 38 37 36
82 82 82 80 78 77 75 72 70 69 68 65 64 65 67 67 66 64 63 62 60 59 58 57 55 53 51 50 49 47 46 45 43 43 44 43 42 42 43 42 42 41 39
85 86 88 87 84 81 79 77 75 74 72 69 67 66 67 69 69 68 67 66 65 64 63 62 60 59 57 55 53 52 51 50 48 47 47 45 45 45 46 45 43 42 42
87 88 89 90 91 86 82 81 80 78 77 73 70 68 67 68 69 69 70 70 69 69 68 67 65 63 62 61 59 57 56 56 54 51 50 48 48 48 48 45 44 43 43
75 77 82 84 86 85 84 85 86 84 82 80 77 74 72 70 70 68 68 69 70 70 70 70 70 69 66 65 65 62 60 60 59 57 55 53 51 49 49 47 44 44 46
48 51 56 61 66 70 75 79 82 84 84 83 81 79 77 75 72 72 71 69 69 69 69 69 69 70 69 68 68 66 64 63 62 60 58 56 55 53 52 50 48 48 49
32 34 36 38 41 47 55 63 71 79 83 84 82 80 78 77 76 77 77 75 71 70 69 67 66 67 68 70 70 70 69 67 63 61 59 56 55 54 54 53 51 49 50
25 27 30 32 33 36 41 47 55 64 72 78 83 82 81 78 75 77 80 80 77 75 72 70 67 65 66 70 71 71 71 68 65 61 58 56 53 50 50 50 51 50 49
22 24 28 31 33 35 37 40 45 51 57 63 71 75 80 77 73 74 78 80 81 80 77 74 72 69 67 68 71 69 69 68 68 65 63 61 56 54 55 55 54 52 51
24 25 27 30 32 35 39 41 41 45 51 54 59 61 65 68 69 69 69 71 74 77 77 77 75 73 72 71 71 75 75 73 69 67 69 68 65 65 62 62 61 60 60
28 30 31 32 33 36 38 39 37 39 47 54 57 64 65 56 59 62 65 69 70 70 73 76 76 75 74 75 75 75 78 77 74 71 70 71 69 68 68 68 67 66 65
33 34 36 36 36 38 38 38 39 42 43 45 53 59 68 61 56 57 60 67 69 63 68 75 76 74 72 74 75 75 76 75 74 73 72 72 70 69 69 70 70 70 69
40 39 39 39 38 38 38 39 40 41 36 31 40 52 61 64 58 48 50 59 65 60 60 67 68 68 67 69 70 71 72 73 72 71 70 69 68 68 68 68 69 70 70
44 42 41 40 39 37 37 36 36 35 32 29 36 45 46 50 58 52 48 50 53 54 49 52 54 57 60 59 61 64 66 67 67 67 67 66 66 66 66 67 70 71 70
46 43 41 40 38 36 33 31 30 25 27 26 23 38 36 44 51 47 46 48 49 47 46 50 53 54 55 56 58 59 62 62 63 64 64 65 65 65 66 68 69 69 67
46 43 41 38 37 35 32 29 25 24 20 19 20 31 33 36 45 47 43 43 44 43 43 45 52 56 55 56 56 56 56 57 60 63 63 65 66 66 65 64 63 62 60
43 41 38 37 36 34 32 30 27 36 31 26 25 31 31 29 37 44 42 40 41 37 38 45 48 54 58 59 57 56 55 54 53 53 57 59 60 60 60 59 60 61 62
38 39 37 36 36 35 33 32 31 34 41 38 35 33 34 30 27 34 38 40 44 44 42 45 45 50 56 56 53 51 49 48 47 49 51 51 51 53 54 54 54 55 56
30 34 37 37 37 36 36 36 36 35 36 39 42 41 39 35 32 34 37 42 43 41 43 46 45 47 50 50 54 55 52 50 49 48 49 51 52 52 53 55 57 56 54
26 26 32 37 39 39 40 40 41 39 38 38 40 43 45 44 43 42 42 44 47 46 45 48 49 48 48 49 49 50 51 51 49 47 47 49 51 52 53 53 54 56 56
Wind_Direction
265 264 263 262 261 259 257 255 254 252 249 246 243 242 241 239 238 238 238 236 235 237 240 240 238 234 230 228 230 232 235 237 239 242 245 247 249 250 250 251 250 250 251
263 262 261 260 260 259 258 256 254 253 253 251 247 244 242 240 237 236 236 234 232 232 234 236 236 235 233 231 230 233 237 241 243 246 248 251 253 254 256 258 258 258 257
261 259 257 256 255 255 255 256 257 254 251 250 248 247 245 243 240 238 236 234 232 231 231 233 234 235 235 235 234 235 238 242 244 247 250 253 255 257 258 258 259 259 259
259 258 257 255 254 254 253 252 253 254 253 251 248 246 246 244 243 241 239 236 235 233 233 233 234 235 236 237 238 239 240 242 244 247 250 253 255 257 257 258 258 259 259
260 259 257 257 256 255 254 252 250 250 251 250 249 247 245 244 244 244 242 239 237 235 234 234 235 236 238 240 242 244 245 245 247 249 250 251 252 254 256 257 258 259 260
262 261 259 257 256 255 254 253 250 249 249 248 247 246 245 245 244 244 243 243 241 238 236 234 233 234 235 238 240 242 244 246 246 246 247 247 248 249 250 254 257 260 260
264 264 263 260 257 255 254 253 252 250 249 249 247 245 244 243 243 243 242 241 241 240 238 237 235 235 236 237 240 242 243 243 243 243 245 247 248 250 252 255 257 259 259
263 263 261 259 257 255 253 253 254 253 251 250 249 247 245 243 242 243 243 242 240 239 238 237 238 238 238 239 241 243 245 245 244 244 246 248 249 251 253 255 257 257 256
258 260 260 258 256 255 255 254 256 256 254 251 249 247 246 244 243 243 242 242 242 241 240 238 238 239 240 241 243 245 247 248 247 246 247 249 251 253 254 254 255 256 255
260 260 260 259 258 258 257 255 256 258 256 254 252 248 247 245 243 242 242 242 242 242 242 242 241 240 241 242 243 245 246 248 249 249 249 251 253 255 255 254 253 254 254
264 263 262 260 259 258 256 254 254 254 254 254 253 252 250 246 244 242 241 242 242 242 243 243 244 243 242 242 242 243 245 247 248 249 250 252 253 254 255 254 251 251 251
264 263 261 260 260 260 259 257 254 253 252 252 251 251 250 249 248 246 243 241 242 243 242 242 243 243 242 241 241 242 243 245 247 249 251 252 252 252 253 253 252 252 252
257 255 255 257 258 257 257 257 255 253 251 249 247 247 248 248 248 247 247 245 243 243 243 242 242 242 242 241 240 241 242 244 245 246 246 249 251 252 251 250 250 250 248
259 260 261 264 267 267 265 262 257 253 251 248 245 244 245 245 245 247 247 247 246 244 242 241 240 240 241 242 241 241 241 241 241 240 240 242 244 243 246 250 250 248 245
269 271 270 265 265 269 271 272 268 260 255 251 244 240 241 243 243 244 246 247 247 246 243 241 240 239 240 240 239 238 238 238 238 238 237 237 237 240 246 249 249 246 244
276 280 281 280 274 272 274 278 274 262 258 254 244 235 229 229 236 242 243 245 246 245 243 241 239 238 238 238 239 239 237 237 237 237 239 238 239 240 242 245 246 248 250
280 279 279 281 277 275 278 280 276 274 269 259 247 228 220 227 233 237 237 237 240 242 240 239 238 238 238 238 238 240 241 242 241 239 239 239 240 242 241 243 246 248 249
285 282 280 280 278 278 280 278 275 283 281 266 249 226 220 214 219 223 230 234 237 237 237 239 240 238 235 235 236 237 239 241 241 241 241 242 242 243 243 245 247 248 250
286 284 281 278 276 276 277 278 275 283 278 258 235 216 218 219 225 222 224 228 232 237 239 240 240 239 237 235 234 235 237 238 240 241 242 242 243 243 243 244 246 248 250
283 282 279 276 275 273 273 276 274 279 265 224 212 207 211 229 229 231 234 232 233 237 243 242 243 241 238 236 235 235 236 237 238 240 241 242 244 244 244 245 246 247 249
278 277 274 272 271 269 267 269 272 268 252 222 215 201 210 228 228 235 235 234 236 238 242 244 238 236 238 236 235 235 236 237 238 238 240 242 244 244 246 246 247 249 250
273 271 269 266 264 262 260 258 256 233 236 232 228 213 203 213 220 221 224 223 227 229 232 234 231 230 232 237 238 237 237 239 243 240 241 243 243 246 246 248 248 248 248
268 265 263 260 259 256 253 252 244 229 229 227 222 220 222 228 230 233 237 231 227 225 228 229 231 233 233 233 237 239 239 243 243 241 242 243 244 245 247 248 247 246 247
269 258 253 252 252 251 247 244 241 234 236 237 236 236 237 234 228 233 237 237 235 234 235 231 235 237 235 234 234 237 243 243 239 237 237 239 239 241 241 241 242 244 246
288 266 250 244 244 246 244 239 238 237 239 240 241 244 241 239 235 231 230 233 234 234 233 234 241 238 233 233 237 238 240 241 242 240 237 237 238 242 245 248 248 247 247
300 282 260 247 242 241 241 239 235 233 236 241 242 240 236 235 235 236 233 231 230 228 231 235 238 237 234 230 229 230 235 239 240 240 241 241 244 246 248 250 251 251 251
Height
5744 5745 5745 5746 5747 5749 5751 5752 5755 5757 5759 5761 5764 5766 5769 5773 5776 5779 5782 5785 5789 5791 5794 5797 5800 5803 5807 5811 5815 5818 5821 5824 5827 5829 5832 5835 5837 5840 5842 5844 5846 5849 5851
5730 5731 5732 5733 5733 5735 5738 5740 5743 5746 5748 5750 5753 5755 5758 5761 5765 5769 5772 5776 5779 5782 5786 5788 5792 5795 5799 5803 5807 5811 5814 5817 5820 5823 5826 5828 5831 5833 5836 5839 5841 5843 5845
5714 5715 5716 5718 5720 5721 5724 5727 5729 5732 5734 5737 5741 5743 5747 5750 5754 5757 5762 5766 5769 5773 5776 5779 5783 5787 5791 5795 5799 5803 5806 5809 5812 5815 5818 5821 5824 5827 5829 5832 5834 5837 5839
5696 5697 5699 5701 5704 5707 5709 5711 5714 5717 5720 5723 5726 5730 5734 5738 5742 5746 5751 5755 5759 5763 5766 5769 5773 5777 5781 5785 5790 5793 5797 5800 5804 5807 5810 5812 5815 5819 5821 5824 5826 5829 5832
5678 5679 5680 5682 5686 5689 5693 5695 5699 5701 5705 5708 5711 5715 5719 5724 5729 5734 5738 5743 5747 5751 5755 5759 5763 5767 5772 5776 5779 5783 5787 5790 5795 5798 5801 5804 5807 5810 5813 5816 5819 5821 5824
5658 5660 5662 5664 5666 5670 5674 5677 5680 5684 5688 5692 5695 5700 5704 5708 5713 5719 5724 5729 5734 5738 5743 5747 5751 5756 5761 5765 5769 5773 5777 5781 5785 5788 5791 5795 5798 5801 5804 5807 5810 5813 5816
5637 5639 5642 5645 5647 5651 5655 5659 5661 5665 5671 5674 5678 5684 5688 5692 5698 5704 5709 5714 5720 5725 5729 5734 5739 5744 5749 5754 5759 5763 5767 5771 5775 5778 5782 5785 5789 5792 5795 5798 5801 5804 5807
5613 5616 5619 5623 5626 5629 5634 5639 5642 5646 5652 5657 5661 5665 5670 5677 5683 5687 5692 5698 5704 5710 5716 5721 5726 5731 5737 5742 5747 5752 5755 5759 5764 5768 5772 5775 5779 5782 5785 5788 5792 5795 5797
5588 5590 5594 5600 5604 5608 5613 5617 5621 5625 5631 5639 5643 5646 5652 5660 5665 5671 5676 5682 5688 5694 5701 5707 5713 5718 5724 5729 5734 5738 5743 5746 5751 5755 5759 5764 5768 5771 5774 5778 5781 5784 5787
5563 5567 5571 5576 5581 5586 5592 5596 5600 5604 5610 5618 5623 5628 5633 5640 5646 5653 5659 5665 5671 5677 5684 5691 5698 5704 5710 5715 5720 5725 5729 5733 5738 5742 5746 5751 5755 5758 5762 5767 5770 5773 5776
5540 5543 5547 5551 5556 5561 5567 5571 5576 5583 5589 5595 5602 5608 5614 5620 5626 5634 5641 5647 5653 5660 5667 5674 5681 5688 5694 5700 5705 5710 5715 5720 5724 5729 5733 5737 5742 5745 5749 5754 5758 5762 5765
5518 5520 5522 5526 5531 5535 5540 5545 5551 5558 5565 5571 5578 5585 5592 5600 5608 5613 5621 5628 5634 5641 5648 5656 5663 5671 5677 5682 5687 5693 5699 5705 5710 5716 5721 5724 5727 5732 5737 5742 5746 5750 5754
5501 5503 5505 5507 5510 5512 5515 5520 5525 5532 5539 5546 5554 5561 5569 5578 5585 5591 5597 5606 5615 5623 5630 5638 5646 5653 5659 5664 5669 5675 5682 5689 5696 5702 5706 5711 5714 5718 5723 5728 5733 5738 5742
5489 5491 5493 5494 5496 5497 5499 5501 5505 5509 5513 5519 5529 5537 5546 5555 5562 5568 5576 5584 5593 5602 5611 5620 5628 5634 5640 5646 5652 5658 5664 5672 5680 5686 5692 5697 5702 5706 5709 5714 5719 5725 5730
5479 5480 5481 5483 5484 5485 5485 5486 5487 5489 5491 5495 5503 5512 5523 5533 5540 5546 5553 5562 5570 5579 5591 5601 5609 5617 5624 5629 5634 5640 5646 5654 5664 5671 5678 5683 5688 5692 5697 5702 5706 5711 5717
5471 5471 5471 5471 5471 5472 5472 5471 5470 5470 5470 5473 5481 5491 5502 5511 5520 5525 5533 5540 5546 5556 5567 5579 5589 5598 5605 5611 5615 5621 5629 5638 5647 5655 5662 5668 5673 5678 5682 5687 5692 5697 5702
5462 5461 5460 5459 5458 5458 5457 5456 5455 5454 5452 5452 5458 5470 5481 5490 5499 5506 5512 5521 5528 5536 5546 5555 5568 5578 5585 5591 5598 5604 5614 5623 5631 5639 5645 5650 5656 5662 5668 5671 5676 5681 5686
5451 5449 5447 5446 5444 5443 5443 5441 5440 5439 5434 5432 5436 5447 5461 5472 5481 5485 5492 5501 5510 5517 5526 5535 5547 5557 5565 5572 5579 5587 5597 5606 5614 5620 5626 5632 5638 5644 5649 5654 5659 5664 5670
5438 5436 5434 5432 5430 5429 5429 5427 5425 5423 5420 5419 5419 5428 5443 5453 5460 5466 5474 5482 5492 5502 5510 5519 5529 5538 5546 5553 5562 5570 5579 5588 5596 5602 5608 5614 5619 5625 5631 5637 5642 5648 5653
5423 5421 5419 5417 5415 5415 5415 5414 5411 5408 5405 5406 5412 5421 5431 5440 5448 5455 5462 5469 5477 5488 5497 5506 5515 5522 5531 5539 5546 5554 5562 5570 5578 5584 5590 5597 5602 5607 5614 5620 5626 5631 5636
5405 5405 5403 5402 5401 5401 5402 5402 5400 5398 5397 5400 5406 5414 5424 5431 5437 5442 5449 5456 5464 5474 5482 5491 5500 5508 5515 5523 5532 5540 5546 5552 5559 5565 5572 5580 5585 5592 5596 5601 5607 5613 5618
5386 5387 5387 5386 5386 5387 5389 5391 5391 5392 5392 5396 5399 5405 5413 5416 5422 5431 5439 5446 5455 5462 5469 5477 5486 5494 5502 5510 5517 5524 5531 5537 5543 5550 5557 5561 5567 5572 5578 5585 5591 5595 5601
5367 5370 5371 5371 5372 5373 5377 5381 5383 5385 5385 5388 5391 5394 5399 5404 5412 5421 5429 5437 5444 5449 5457 5466 5473 5480 5489 5497 5505 5512 5517 5523 5529 5534 5539 5544 5550 5557 5563 5569 5574 5578 5584
5350 5352 5355 5357 5358 5360 5364 5369 5372 5375 5378 5381 5383 5387 5391 5398 5404 5410 5418 5425 5431 5439 5446 5454 5462 5468 5474 5481 5489 5496 5501 5507 5513 5519 5525 5530 5536 5541 5548 5553 5557 5562 5569
5335 5336 5339 5342 5344 5347 5350 5355 5359 5364 5367 5371 5375 5378 5383 5388 5394 5399 5407 5415 5421 5427 5434 5442 5448 5454 5460 5467 5475 5482 5488 5494 5499 5505 5512 5517 5522 5528 5533 5536 5541 5549 5554
5324 5323 5325 5328 5331 5333 5336 5340 5346 5351 5356 5360 5363 5367 5373 5379 5384 5389 5395 5402 5409 5415 5422 5430 5436 5443 5448 5455 5462 5469 5475 5482 5487 5493 5498 5504 5508 5513 5517 5522 5527 5534 5538